Find Starlink 11636

NORAD ID: 63194 Int'l Des: 2025-048 Owner: SPXS Country: US Constellation: starlink operational
又名: STARLINK-11636 [DTC] celestrak
LEOCIRCULAR

当前视图

正在加载3D地球...

About Starlink 11636

Starlink 11636 (NORAD 63194) is a starlink constellation satellite (v2 mini d2c) launched Mar 13, 2025 by SPXS of US. It operates in LEO, CIRCULAR orbit with a mass of 960.00 kg.

即将过境

Passes for default location (London). Set your location on the main map for personalized predictions.

高度历史

Loading altitude history...

两行轨道根数

1 63194U 25048M 26235.49569776 .00247698 00000-0 18762-2 0 9995
2 63194 43.0019 34.6026 0004354 281.3618 78.6760 15.70843475 84750
Epoch: Aug 23, 2026 • Age: 14 hours

当前状态

高度 358.1 km
远地点 / 近地点 N/A
速度 7.70 km/s
星下点 26.39°N, 173.37°E
发射日期 Mar 13, 2025
运行时间 1.4 years
类型 internet

技术详情

分类 Payload
质量 960.00 kg
干质量 910.00 kg
总质量 960.00 kg
长度 0.30 m
直径 4.10 m
跨度 29.00 m
形状 Box + pan
制造商 SPXS
平台类型 Starlink V2MD
阶段状态 In Orbit
所有者/国家 SPXS/US

Most Searched